Coleman, TX

1:00 AM CDT on October 01, 2016 (GMT -0500)
Coleman Municipal

Weather History for KCOM - December, 2012

Change the Weather History Date:

Saturday, December 15, 2012

  Actual Average (KABI) Record (KABI)
Temperature  
Mean Temperature 58 °F 45 °F  
Max Temperature 71 °F 57 °F 83 °F (2010)
Min Temperature 45 °F 33 °F 10 °F (1901)
Degree Days  
Heating Degree Days 7 20  
Month to date heating degree days 279  
Since 1 July heating degree days 712  
Cooling Degree Days 0 0  
Month to date cooling degree days 0  
Year to date cooling degree days 2408  
Growing Degree Days 8 (Base 50)    
Moisture  
Dew Point 33 °F    
Average Humidity 40    
Maximum Humidity 67    
Minimum Humidity 23    
Precipitation  
Precipitation 0.00 in 0.04 in 1.17 in (1967)
Month to date precipitation 0.60  
Year to date precipitation 24.19  
Sea Level Pressure  
Sea Level Pressure 29.92 in    
Wind  
Wind Speed 6 mph (WSW)    
Max Wind Speed 15 mph    
Max Gust Speed 23 mph    
Visibility 10 miles    
Events      
T = Trace of Precipitation, MM = Missing Value Source: NWS Daily Summary

Daily Weather History Graph

Daily Weather History Graph

Search for Another Location

Airport or City:

Trip Planner

Search our weather history database for the weather conditions in past years. The results will help you decide how hot, cold, wet, or windy it might be!

Date:

Astronomy

Dec. 15, 2012 Rise Set
Actual Time 7:30 AM CST 5:35 PM CST
Civil Twilight 7:03 AM CST 6:02 PM CST
Nautical Twilight 6:33 AM CST 6:32 PM CST
Astronomical Twilight 6:03 AM CST 7:02 PM CST
Moon 9:30 AM CST (12/15) 8:33 PM CST (12/15)
Length of Visible Light 10h 58m
Length of Day
10h 04m
Waxing Crescent, 8% of the Moon is Illuminated
Dec 15
Waxing Crescent
Dec 19
First Quarter
Dec 28
Full
Jan 4
Last Quarter
Jan 11
New

Hourly Weather History & Observations

Time (CST) Temp. Dew Point Humidity Pressure Visibility Wind Dir Wind Speed Gust Speed Precip Events Conditions
12:15 AM 56.1 °F 44.6 °F 65% 29.93 in 10.0 mi Calm Calm - N/A   Mostly Cloudy
12:35 AM 55.8 °F 44.4 °F 66% 29.94 in 10.0 mi West 3.5 mph - N/A   Overcast
12:55 AM 55.6 °F 44.1 °F 65% 29.93 in 10.0 mi WSW 4.6 mph - N/A   Overcast
1:15 AM 54.9 °F 44.2 °F 67% 29.94 in 10.0 mi WSW 5.8 mph - N/A   Mostly Cloudy
1:35 AM 55.2 °F 43.9 °F 66% 29.93 in 10.0 mi West 6.9 mph - N/A   Overcast
1:55 AM 56.7 °F 43.0 °F 60% 29.92 in 10.0 mi West 8.1 mph - N/A   Overcast
2:15 AM 57.2 °F 40.3 °F 53% 29.93 in 10.0 mi West 10.4 mph - N/A   Overcast
2:35 AM 57.6 °F 36.3 °F 45% 29.93 in 10.0 mi West 11.5 mph 16.1 mph N/A   Overcast
2:55 AM 57.6 °F 33.3 °F 40% 29.93 in 10.0 mi West 9.2 mph - N/A   Overcast
3:35 AM 57.0 °F 30.2 °F 36% 29.93 in 10.0 mi West 15.0 mph 23.0 mph N/A   Mostly Cloudy
3:55 AM 56.5 °F 29.8 °F 36% 29.93 in 10.0 mi West 12.7 mph - N/A   Scattered Clouds
4:15 AM 55.2 °F 30.6 °F 39% 29.93 in 10.0 mi West 10.4 mph - N/A   Clear
4:35 AM 54.0 °F 30.9 °F 41% 29.92 in 10.0 mi West 9.2 mph - N/A   Clear
4:55 AM 53.4 °F 30.6 °F 42% 29.93 in 10.0 mi West 8.1 mph - N/A   Clear
5:15 AM 52.7 °F 30.2 °F 42% 29.93 in 10.0 mi West 8.1 mph - N/A   Clear
5:35 AM 51.8 °F 30.6 °F 44% 29.92 in 10.0 mi West 6.9 mph - N/A   Clear
5:55 AM 51.1 °F 30.9 °F 46% 29.93 in 10.0 mi West 6.9 mph - N/A   Clear
6:35 AM 50.2 °F 30.6 °F 47% 29.94 in 10.0 mi SW 6.9 mph - N/A   Clear
6:55 AM 49.5 °F 30.7 °F 49% 29.95 in 10.0 mi SW 5.8 mph - N/A   Clear
7:15 AM 47.8 °F 31.1 °F 52% 29.95 in 10.0 mi Calm Calm - N/A   Clear
7:35 AM 46.9 °F 31.3 °F 55% 29.94 in 10.0 mi Calm Calm - N/A   Clear
7:55 AM 46.6 °F 31.5 °F 56% 29.95 in 10.0 mi West 3.5 mph - N/A   Clear
8:15 AM 45.5 °F 32.7 °F 61% 29.95 in 10.0 mi Calm Calm - N/A   Clear
8:35 AM 46.8 °F 32.7 °F 58% 29.96 in 10.0 mi West 6.9 mph - N/A   Clear
8:55 AM 51.4 °F 31.8 °F 47% 29.96 in 10.0 mi West 8.1 mph - N/A   Clear
9:15 AM 54.1 °F 31.5 °F 42% 29.96 in 10.0 mi West 10.4 mph - N/A   Clear
9:35 AM 56.1 °F 31.1 °F 39% 29.97 in 10.0 mi WSW 9.2 mph - N/A   Clear
9:55 AM 57.4 °F 30.6 °F 36% 29.97 in 10.0 mi West 8.1 mph - N/A   Clear
10:15 AM 59.4 °F 30.6 °F 34% 29.98 in 10.0 mi West 10.4 mph - N/A   Clear
10:35 AM 61.2 °F 29.8 °F 31% 29.98 in 10.0 mi West 10.4 mph - N/A   Clear
10:55 AM 61.9 °F 29.3 °F 29% 29.99 in 10.0 mi West 4.6 mph - N/A   Clear
11:15 AM 63.9 °F 30.0 °F 28% 29.97 in 10.0 mi West 8.1 mph - N/A   Clear
11:35 AM 64.8 °F 28.4 °F 25% 29.97 in 10.0 mi West 10.4 mph - N/A   Clear
11:55 AM 65.3 °F 28.8 °F 25% 29.96 in 10.0 mi WNW 9.2 mph - N/A   Clear
12:15 PM 66.7 °F 27.7 °F 23% 29.95 in 10.0 mi West 9.2 mph - N/A   Clear
12:35 PM 67.5 °F 28.9 °F 24% 29.94 in 10.0 mi West 10.4 mph - N/A   Clear
12:55 PM 68.4 °F 30.0 °F 24% 29.92 in 10.0 mi West 12.7 mph 16.1 mph N/A   Clear
1:15 PM 68.7 °F 31.1 °F 25% 29.90 in 10.0 mi WSW 8.1 mph - N/A   Clear
1:35 PM 69.8 °F 32.0 °F 25% 29.89 in 10.0 mi West 15.0 mph 19.6 mph N/A   Clear
1:55 PM 71.1 °F 32.4 °F 24% 29.89 in 10.0 mi WSW 12.7 mph 20.7 mph N/A   Clear
2:15 PM 71.8 °F 32.4 °F 23% 29.87 in 10.0 mi WSW 15.0 mph 20.7 mph N/A   Clear
2:35 PM 70.9 °F 32.4 °F 24% 29.87 in 10.0 mi West 11.5 mph 16.1 mph N/A   Clear
3:15 PM 68.9 °F 32.0 °F 25% 29.87 in 10.0 mi West 9.2 mph - N/A   Clear
3:35 PM 68.5 °F 32.4 °F 26% 29.88 in 10.0 mi West 5.8 mph - N/A   Clear
3:55 PM 68.4 °F 32.5 °F 27% 29.87 in 10.0 mi West 5.8 mph - N/A   Clear
4:15 PM 67.8 °F 32.5 °F 27% 29.88 in 10.0 mi West 6.9 mph - N/A   Clear
4:35 PM 67.1 °F 33.1 °F 28% 29.89 in 10.0 mi West 4.6 mph - N/A   Clear
4:55 PM 66.0 °F 33.1 °F 29% 29.88 in 10.0 mi Calm Calm - N/A   Clear
5:15 PM 65.1 °F 33.4 °F 31% 29.89 in 10.0 mi WNW 4.6 mph - N/A   Clear
5:35 PM 63.3 °F 33.8 °F 33% 29.89 in 10.0 mi West 3.5 mph - N/A   Clear
5:55 PM 62.4 °F 33.8 °F 34% 29.88 in 10.0 mi West 3.5 mph - N/A   Clear
6:15 PM 62.1 °F 33.3 °F 34% 29.88 in 10.0 mi Calm Calm - N/A   Clear
6:35 PM 62.2 °F 33.3 °F 34% 29.89 in 10.0 mi Calm Calm - N/A   Clear
6:55 PM 61.9 °F 33.1 °F 34% 29.89 in 10.0 mi Calm Calm - N/A   Clear
7:15 PM 61.5 °F 32.5 °F 34% 29.89 in 10.0 mi Calm Calm - N/A   Clear
7:35 PM 59.9 °F 33.8 °F 38% 29.89 in 10.0 mi Calm Calm - N/A   Clear
7:55 PM 59.0 °F 34.0 °F 39% 29.91 in 10.0 mi WSW 4.6 mph - N/A   Clear
8:15 PM 59.5 °F 33.3 °F 37% 29.89 in 10.0 mi SSW 4.6 mph - N/A   Clear
8:35 PM 58.3 °F 34.3 °F 41% 29.90 in 10.0 mi SW 4.6 mph - N/A   Clear
8:55 PM 58.1 °F 34.0 °F 40% 29.89 in 10.0 mi SW 4.6 mph - N/A   Clear
9:15 PM 57.4 °F 34.3 °F 42% 29.89 in 10.0 mi SSW 5.8 mph - N/A   Clear
9:35 PM 57.4 °F 34.0 °F 41% 29.89 in 10.0 mi SW 4.6 mph - N/A   Clear
9:55 PM 56.5 °F 34.7 °F 44% 29.89 in 10.0 mi SW 4.6 mph - N/A   Clear
10:15 PM 55.4 °F 35.4 °F 47% 29.88 in 10.0 mi SSW 4.6 mph - N/A   Clear
10:35 PM 54.5 °F 35.2 °F 48% 29.89 in 10.0 mi SW 5.8 mph - N/A   Clear
10:55 PM 53.6 °F 35.1 °F 50% 29.88 in 10.0 mi SW 5.8 mph - N/A   Clear
11:15 PM 54.1 °F 34.5 °F 48% 29.88 in 10.0 mi WSW 5.8 mph - N/A   Clear
11:35 PM 53.6 °F 34.9 °F 49% 29.88 in 10.0 mi SW 3.5 mph - N/A   Clear
11:55 PM 53.2 °F 35.2 °F 51% 29.88 in 10.0 mi Calm Calm - N/A   Clear